Check out our new BloomSky Weather System.

Active alerts


No alerts


Thunder radar  blitzortung!


Rain radar more information rain snow radar


Visit our other weather sites:

Template documentation
and downloads

And another site



Weather Underground History page Text

Daily Summary for February 5, 2017 Units:  Metric    English   Both
« Previous Day
Next Day »
Daily Weekly Monthly Yearly Custom
  High: Low: Average:
Temperature: 26.2 °C 17.2 °C 21.3 °C
Dew Point: 21 °C 16.4 °C 19.1 °C
Humidity: 97 % 65 % 88 %
Wind Speed: 19.3 km/h 0 km/h 7.1 km/h
Wind Gust: 25.7 km/h - -
Wind:- - SSE
Pressure: 1020.2 hPa 1016.1 hPa -
Precipitation: 1.27 mm    
Historical Graphs
 
 
Tabular Data for February 5, 2017
Time Temperature Dew Point Pressure Wind Wind Speed Wind Gust Humidity Rainfall Rate (Hourly)
00:02 17.2 °C 16.4 °C 1019.2 hPa SE 4.8 km/h 14.5 km/h 95 % 0 mm
00:07 17.3 °C 16.5 °C 1019.2 hPa East 6.4 km/h 12.9 km/h 95 % 0 mm
00:12 17.3 °C 16.5 °C 1019.2 hPa ESE 6.4 km/h 12.9 km/h 95 % 0 mm
00:17 17.3 °C 16.5 °C 1019.2 hPa SE 8 km/h 11.3 km/h 95 % 0 mm
00:22 17.3 °C 16.5 °C 1019.2 hPa East 3.2 km/h 11.3 km/h 95 % 0 mm
00:27 17.4 °C 16.6 °C 1019.2 hPa SE 6.4 km/h 11.3 km/h 95 % 0 mm
00:32 17.4 °C 16.6 °C 1018.8 hPa SE 6.4 km/h 11.3 km/h 95 % 0 mm
00:37 17.4 °C 16.6 °C 1018.8 hPa SE 6.4 km/h 11.3 km/h 95 % 0 mm
00:42 17.4 °C 16.6 °C 1018.8 hPa ESE 6.4 km/h 11.3 km/h 95 % 0 mm
00:47 17.5 °C 16.7 °C 1018.8 hPa SSE 3.2 km/h 11.3 km/h 95 % 0 mm
00:52 17.6 °C 16.8 °C 1018.8 hPa SE 6.4 km/h 11.3 km/h 95 % 0 mm
00:57 17.6 °C 16.8 °C 1018.8 hPa SE 1.6 km/h 11.3 km/h 95 % 0 mm
01:02 17.7 °C 16.9 °C 1018.8 hPa SE 4.8 km/h 8 km/h 95 % 0 mm
01:07 17.7 °C 16.9 °C 1018.5 hPa SE 6.4 km/h 9.7 km/h 95 % 0 mm
01:12 17.8 °C 17 °C 1018.5 hPa East 4.8 km/h 12.9 km/h 95 % 0 mm
01:17 17.8 °C 17 °C 1018.5 hPa South 6.4 km/h 12.9 km/h 95 % 0 mm
01:22 17.9 °C 17.1 °C 1018.5 hPa SE 6.4 km/h 12.9 km/h 95 % 0 mm
01:27 17.9 °C 17.3 °C 1018.2 hPa SE 4.8 km/h 12.9 km/h 96 % 0 mm
01:32 17.9 °C 17.3 °C 1018.5 hPa SE 3.2 km/h 12.9 km/h 96 % 0 mm
01:37 18 °C 17.4 °C 1018.5 hPa SE 6.4 km/h 12.9 km/h 96 % 0 mm
01:41 18.1 °C 17.5 °C 1018.5 hPa SSE 4.8 km/h 9.7 km/h 96 % 0 mm
01:46 18.1 °C 17.5 °C 1018.5 hPa SE 1.6 km/h 9.7 km/h 96 % 0 mm
01:51 18.1 °C 17.5 °C 1018.5 hPa SE 4.8 km/h 9.7 km/h 96 % 0 mm
01:56 18.2 °C 17.6 °C 1018.5 hPa SE 4.8 km/h 9.7 km/h 96 % 0 mm
02:01 18.2 °C 17.6 °C 1018.5 hPa SE 6.4 km/h 9.7 km/h 96 % 0 mm
02:06 18.2 °C 17.6 °C 1018.5 hPa ESE 3.2 km/h 8 km/h 96 % 0 mm
02:11 18.2 °C 17.6 °C 1018.5 hPa East 4.8 km/h 8 km/h 96 % 0 mm
02:16 18.3 °C 17.7 °C 1018.5 hPa SE 4.8 km/h 6.4 km/h 96 % 0 mm
02:21 18.3 °C 17.7 °C 1018.5 hPa ESE 4.8 km/h 11.3 km/h 96 % 0 mm
02:26 18.3 °C 17.7 °C 1018.2 hPa ESE 3.2 km/h 11.3 km/h 96 % 0 mm
02:31 18.4 °C 17.8 °C 1018.2 hPa SSE 1.6 km/h 11.3 km/h 96 % 0 mm
02:36 18.4 °C 17.8 °C 1018.2 hPa SE 1.6 km/h 6.4 km/h 96 % 0 mm
02:41 18.4 °C 17.8 °C 1018.2 hPa SSE 3.2 km/h 4.8 km/h 96 % 0 mm
02:46 18.5 °C 17.8 °C 1018.2 hPa SSE 1.6 km/h 4.8 km/h 96 % 0 mm
02:51 18.6 °C 17.9 °C 1018.2 hPa SE 3.2 km/h 4.8 km/h 96 % 0 mm
02:56 18.7 °C 18 °C 1018.2 hPa SE 1.6 km/h 6.4 km/h 96 % 0 mm
03:01 18.7 °C 18 °C 1017.8 hPa ESE 1.6 km/h 9.7 km/h 96 % 0 mm
03:06 18.8 °C 18.1 °C 1017.8 hPa ESE 1.6 km/h 9.7 km/h 96 % 0 mm
03:11 18.8 °C 18.1 °C 1017.8 hPa SE 4.8 km/h 9.7 km/h 96 % 0 mm
03:16 18.9 °C 18.2 °C 1017.8 hPa SSE 3.2 km/h 6.4 km/h 96 % 0 mm
03:22 19 °C 18.5 °C 1017.8 hPa SSE 3.2 km/h 9.7 km/h 97 % 0 mm
03:27 19.1 °C 18.6 °C 1017.8 hPa SE 4.8 km/h 9.7 km/h 97 % 0 mm
03:32 19.1 °C 18.6 °C 1017.8 hPa SSE 3.2 km/h 9.7 km/h 97 % 0 mm
03:37 19.2 °C 18.7 °C 1017.8 hPa SSE 3.2 km/h 9.7 km/h 97 % 0 mm
03:42 19.2 °C 18.7 °C 1017.8 hPa SW 6.4 km/h 9.7 km/h 97 % 0 mm
03:47 19.2 °C 18.7 °C 1017.8 hPa South 4.8 km/h 9.7 km/h 97 % 0 mm
03:52 19.2 °C 18.7 °C 1017.8 hPa South 8 km/h 9.7 km/h 97 % 0 mm
03:57 19.2 °C 18.7 °C 1017.8 hPa SSE 1.6 km/h 9.7 km/h 97 % 0 mm
04:02 19.2 °C 18.7 °C 1017.8 hPa SSE 4.8 km/h 9.7 km/h 97 % 0 mm
04:07 19.3 °C 18.8 °C 1017.8 hPa SE 3.2 km/h 9.7 km/h 97 % 0 mm
04:12 19.2 °C 18.7 °C 1017.8 hPa ESE 11.3 km/h 11.3 km/h 97 % 0 mm
04:17 19.3 °C 18.8 °C 1017.8 hPa ESE 4.8 km/h 12.9 km/h 97 % 0 mm
04:22 19.3 °C 18.8 °C 1017.8 hPa SSE 6.4 km/h 12.9 km/h 97 % 0 mm
04:27 19.3 °C 18.8 °C 1017.8 hPa SSE 4.8 km/h 12.9 km/h 97 % 0 mm
04:32 19.3 °C 18.8 °C 1017.8 hPa SSE 6.4 km/h 11.3 km/h 97 % 0 mm
04:37 19.3 °C 18.8 °C 1017.8 hPa SSE 3.2 km/h 11.3 km/h 97 % 0 mm
04:42 19.3 °C 18.8 °C 1017.8 hPa SE 8 km/h 11.3 km/h 97 % 0 mm
04:47 19.3 °C 18.8 °C 1017.8 hPa SE 6.4 km/h 9.7 km/h 97 % 0 mm
04:52 19.4 °C 18.9 °C 1017.8 hPa SSE 4.8 km/h 11.3 km/h 97 % 0 mm
04:57 19.3 °C 18.8 °C 1017.8 hPa SSE 1.6 km/h 11.3 km/h 97 % 0 mm
05:02 19.4 °C 18.9 °C 1017.8 hPa SE 8 km/h 11.3 km/h 97 % 0 mm
05:07 19.4 °C 18.9 °C 1017.8 hPa South 3.2 km/h 8 km/h 97 % 0 mm
05:12 19.4 °C 18.9 °C 1018.2 hPa SSE 4.8 km/h 12.9 km/h 97 % 0 mm
05:17 19.4 °C 18.9 °C 1017.8 hPa SSE 1.6 km/h 12.9 km/h 97 % 0 mm
05:22 19.5 °C 19 °C 1018.2 hPa SE 8 km/h 12.9 km/h 97 % 0 mm
05:27 19.5 °C 19 °C 1018.2 hPa ESE 3.2 km/h 11.3 km/h 97 % 0 mm
05:32 19.5 °C 19 °C 1018.2 hPa South 3.2 km/h 11.3 km/h 97 % 0 mm
05:37 19.6 °C 19.1 °C 1018.2 hPa ESE 4.8 km/h 9.7 km/h 97 % 0 mm
05:42 19.6 °C 19.1 °C 1018.2 hPa SE 4.8 km/h 9.7 km/h 97 % 0 mm
05:47 19.6 °C 19.1 °C 1018.2 hPa SE 3.2 km/h 9.7 km/h 97 % 0 mm
05:52 19.6 °C 19.1 °C 1018.5 hPa SW 4.8 km/h 9.7 km/h 97 % 0 mm
05:57 19.6 °C 19.1 °C 1018.5 hPa South 8 km/h 8 km/h 97 % 0 mm
06:02 19.6 °C 19.1 °C 1018.5 hPa SSE 3.2 km/h 11.3 km/h 97 % 0 mm
06:07 19.6 °C 19.1 °C 1018.5 hPa SSE 3.2 km/h 11.3 km/h 97 % 0 mm
06:12 19.6 °C 19.1 °C 1018.5 hPa SSE 4.8 km/h 11.3 km/h 97 % 0 mm
06:17 19.6 °C 19.1 °C 1018.5 hPa South 3.2 km/h 11.3 km/h 97 % 0 mm
06:22 19.6 °C 19.1 °C 1018.5 hPa SE 1.6 km/h 11.3 km/h 97 % 0 mm
06:27 19.6 °C 19.1 °C 1018.5 hPa SE 4.8 km/h 8 km/h 97 % 0 mm
06:32 19.6 °C 19.1 °C 1018.5 hPa South 4.8 km/h 8 km/h 97 % 0 mm
06:37 19.6 °C 19.1 °C 1018.5 hPa South 3.2 km/h 8 km/h 97 % 0 mm
06:42 19.6 °C 19.1 °C 1018.5 hPa South 3.2 km/h 8 km/h 97 % 0 mm
06:47 19.7 °C 19.2 °C 1018.5 hPa SSE 3.2 km/h 8 km/h 97 % 0 mm
06:53 19.6 °C 19.1 °C 1018.5 hPa SE 4.8 km/h 8 km/h 97 % 0 mm
06:58 19.7 °C 19.2 °C 1018.5 hPa SSW 3.2 km/h 9.7 km/h 97 % 0 mm
07:03 19.6 °C 19.1 °C 1018.5 hPa SE 4.8 km/h 14.5 km/h 97 % 0 mm
07:08 19.6 °C 19.1 °C 1018.5 hPa SE 3.2 km/h 14.5 km/h 97 % 0 mm
07:13 19.7 °C 19.2 °C 1018.5 hPa SSE 3.2 km/h 14.5 km/h 97 % 0 mm
07:18 19.7 °C 19.2 °C 1018.8 hPa South 6.4 km/h 11.3 km/h 97 % 0 mm
07:23 19.7 °C 19.2 °C 1018.8 hPa South 4.8 km/h 11.3 km/h 97 % 0 mm
07:28 19.7 °C 19.2 °C 1018.8 hPa SE 4.8 km/h 9.7 km/h 97 % 0 mm
07:33 19.7 °C 19.2 °C 1018.8 hPa SE 4.8 km/h 12.9 km/h 97 % 0 mm
07:38 19.8 °C 19.3 °C 1018.8 hPa South 3.2 km/h 12.9 km/h 97 % 0 mm
07:43 19.8 °C 19.3 °C 1018.8 hPa SSE 3.2 km/h 12.9 km/h 97 % 0 mm
07:48 19.8 °C 19.3 °C 1018.8 hPa SSE 6.4 km/h 11.3 km/h 97 % 0 mm
07:53 19.9 °C 19.4 °C 1018.8 hPa SE 8 km/h 11.3 km/h 97 % 0 mm
07:58 19.9 °C 19.4 °C 1018.8 hPa SSE 8 km/h 12.9 km/h 97 % 0 mm
08:03 19.9 °C 19.4 °C 1018.8 hPa SSE 4.8 km/h 14.5 km/h 97 % 0 mm
08:08 20 °C 19.5 °C 1019.2 hPa South 8 km/h 14.5 km/h 97 % 0 mm
08:13 20 °C 19.5 °C 1019.2 hPa South 9.7 km/h 14.5 km/h 97 % 0 mm
08:18 20.1 °C 19.6 °C 1019.2 hPa South 3.2 km/h 11.3 km/h 97 % 0 mm
08:23 20.1 °C 19.6 °C 1019.2 hPa SSE 6.4 km/h 11.3 km/h 97 % 0 mm
08:28 20.1 °C 19.6 °C 1019.2 hPa South 6.4 km/h 11.3 km/h 97 % 0 mm
08:33 20.2 °C 19.7 °C 1019.5 hPa ESE 8 km/h 11.3 km/h 97 % 0 mm
08:38 20.2 °C 19.7 °C 1019.5 hPa South 6.4 km/h 12.9 km/h 97 % 0 mm
08:43 20.3 °C 19.8 °C 1019.5 hPa SE 1.6 km/h 12.9 km/h 97 % 0 mm
08:48 20.3 °C 19.8 °C 1019.5 hPa SSW 4.8 km/h 12.9 km/h 97 % 0 mm
08:53 20.3 °C 19.6 °C 1019.5 hPa South 4.8 km/h 11.3 km/h 96 % 0 mm
08:58 20.3 °C 19.6 °C 1019.9 hPa SE 4.8 km/h 11.3 km/h 96 % 0 mm
09:03 20.3 °C 19.6 °C 1019.9 hPa South 6.4 km/h 8 km/h 96 % 0 mm
09:08 20.3 °C 19.8 °C 1019.9 hPa SSE 3.2 km/h 11.3 km/h 97 % 0.25 mm
09:13 20.3 °C 19.8 °C 1019.9 hPa SSE 1.6 km/h 11.3 km/h 97 % 0.25 mm
09:18 20.3 °C 19.8 °C 1019.9 hPa South 4.8 km/h 11.3 km/h 97 % 0.51 mm
09:24 20.3 °C 19.8 °C 1019.9 hPa SE 4.8 km/h 12.9 km/h 97 % 0.76 mm
09:29 20.3 °C 19.8 °C 1019.9 hPa SSW 6.4 km/h 12.9 km/h 97 % 0.76 mm
09:34 20.4 °C 19.9 °C 1019.9 hPa SSE 1.6 km/h 12.9 km/h 97 % 0.76 mm
09:39 20.4 °C 19.9 °C 1019.9 hPa South 4.8 km/h 9.7 km/h 97 % 1.02 mm
09:44 20.4 °C 19.9 °C 1019.9 hPa Calm   8 km/h 97 % 1.02 mm
09:49 20.4 °C 19.9 °C 1020.2 hPa SW 4.8 km/h 8 km/h 97 % 1.27 mm
09:54 20.4 °C 19.9 °C 1020.2 hPa SSE 4.8 km/h 12.9 km/h 97 % 1.27 mm
09:59 20.6 °C 20.1 °C 1020.2 hPa Calm   14.5 km/h 97 % 1.27 mm
10:04 20.8 °C 20.3 °C 1020.2 hPa SSE 6.4 km/h 14.5 km/h 97 % 1.27 mm
10:09 20.9 °C 20.4 °C 1020.2 hPa SE 6.4 km/h 14.5 km/h 97 % 1.02 mm
10:14 20.9 °C 20.4 °C 1020.2 hPa SSE 9.7 km/h 11.3 km/h 97 % 1.02 mm
10:19 21.2 °C 20.7 °C 1020.2 hPa SSW 8 km/h 12.9 km/h 97 % 0.76 mm
10:24 21.3 °C 20.6 °C 1020.2 hPa SSE 11.3 km/h 16.1 km/h 96 % 0.51 mm
10:29 21.4 °C 20.7 °C 1020.2 hPa South 9.7 km/h 16.1 km/h 96 % 0.51 mm
10:34 21.5 °C 20.7 °C 1020.2 hPa South 6.4 km/h 16.1 km/h 95 % 0.25 mm
10:39 21.6 °C 20.6 °C 1020.2 hPa SE 9.7 km/h 14.5 km/h 94 % 0.25 mm
10:44 21.6 °C 20.6 °C 1020.2 hPa SE 6.4 km/h 17.7 km/h 94 % 0.25 mm
10:49 21.7 °C 20.7 °C 1020.2 hPa SW 6.4 km/h 17.7 km/h 94 % 0 mm
10:54 21.8 °C 20.8 °C 1020.2 hPa South 6.4 km/h 17.7 km/h 94 % 0 mm
10:59 21.8 °C 20.6 °C 1020.2 hPa South 8 km/h 14.5 km/h 93 % 0 mm
11:04 21.9 °C 20.7 °C 1019.9 hPa South 8 km/h 14.5 km/h 93 % 0 mm
11:09 22.1 °C 20.9 °C 1019.9 hPa SSE 6.4 km/h 14.5 km/h 93 % 0 mm
11:14 22.1 °C 20.9 °C 1019.9 hPa South 11.3 km/h 14.5 km/h 93 % 0 mm
11:19 22.1 °C 20.7 °C 1019.9 hPa South 3.2 km/h 11.3 km/h 92 % 0 mm
11:24 22.3 °C 20.9 °C 1019.9 hPa Calm   11.3 km/h 92 % 0 mm
11:29 22.4 °C 20.9 °C 1019.9 hPa SSW 4.8 km/h 11.3 km/h 91 % 0 mm
11:34 22.6 °C 20.9 °C 1019.5 hPa SSW 8 km/h 11.3 km/h 90 % 0 mm
11:39 22.7 °C 21 °C 1019.5 hPa South 3.2 km/h 11.3 km/h 90 % 0 mm
11:44 22.8 °C 20.9 °C 1019.5 hPa South 8 km/h 11.3 km/h 89 % 0 mm
11:49 23 °C 20.9 °C 1019.2 hPa SSE 11.3 km/h 12.9 km/h 88 % 0 mm
11:54 23.2 °C 20.9 °C 1019.2 hPa SSW 9.7 km/h 14.5 km/h 87 % 0 mm
11:59 23.3 °C 20.4 °C 1019.2 hPa South 8 km/h 16.1 km/h 84 % 0 mm
12:04 23.7 °C 20.8 °C 1018.8 hPa SSW 9.7 km/h 16.1 km/h 84 % 0 mm
12:09 23.8 °C 20.5 °C 1018.8 hPa SSW 8 km/h 16.1 km/h 82 % 0 mm
12:14 23.9 °C 20.6 °C 1018.8 hPa South 3.2 km/h 16.1 km/h 82 % 0 mm
12:19 24.1 °C 20.8 °C 1018.8 hPa South 6.4 km/h 16.1 km/h 82 % 0 mm
12:24 24.2 °C 20.3 °C 1018.8 hPa SSW 11.3 km/h 14.5 km/h 79 % 0 mm
12:29 24.3 °C 20.4 °C 1018.5 hPa SSE 8 km/h 17.7 km/h 79 % 0 mm
12:34 24.5 °C 20.4 °C 1018.2 hPa SSE 8 km/h 20.9 km/h 78 % 0 mm
12:39 24.7 °C 20 °C 1018.2 hPa SW 12.9 km/h 22.5 km/h 75 % 0 mm
12:44 24.9 °C 20.6 °C 1018.2 hPa South 12.9 km/h 22.5 km/h 77 % 0 mm
12:50 25.3 °C 20.3 °C 1017.8 hPa SSW 8 km/h 22.5 km/h 74 % 0 mm
12:55 25.4 °C 19.8 °C 1017.8 hPa SSE 9.7 km/h 20.9 km/h 71 % 0 mm
13:00 25.6 °C 19.7 °C 1017.8 hPa SSE 19.3 km/h 25.7 km/h 70 % 0 mm
13:05 25.7 °C 19.8 °C 1017.5 hPa SSE 17.7 km/h 25.7 km/h 70 % 0 mm
13:10 25.9 °C 19.3 °C 1017.5 hPa South 11.3 km/h 25.7 km/h 67 % 0 mm
13:15 26.2 °C 19.1 °C 1017.2 hPa ESE 11.3 km/h 24.1 km/h 65 % 0 mm
13:20 26.1 °C 19.2 °C 1017.2 hPa SSE 11.3 km/h 24.1 km/h 66 % 0 mm
13:25 25.9 °C 19.3 °C 1017.2 hPa SSE 9.7 km/h 22.5 km/h 67 % 0 mm
13:30 25.6 °C 19.3 °C 1017.2 hPa SSE 12.9 km/h 22.5 km/h 68 % 0 mm
13:35 25.4 °C 19.5 °C 1017.2 hPa SSE 4.8 km/h 22.5 km/h 70 % 0 mm
13:40 25.6 °C 19.5 °C 1017.2 hPa SSE 4.8 km/h 19.3 km/h 69 % 0 mm
13:45 25.3 °C 19.4 °C 1016.8 hPa SE 4.8 km/h 20.9 km/h 70 % 0 mm
13:50 25.3 °C 19.4 °C 1016.8 hPa ESE 14.5 km/h 20.9 km/h 70 % 0 mm
13:55 25.3 °C 19.2 °C 1016.8 hPa South 11.3 km/h 20.9 km/h 69 % 0 mm
14:00 25.2 °C 19.1 °C 1016.8 hPa SSW 12.9 km/h 22.5 km/h 69 % 0 mm
14:05 25.1 °C 19.2 °C 1016.8 hPa South 6.4 km/h 22.5 km/h 70 % 0 mm
14:10 25.1 °C 19 °C 1016.5 hPa SSE 16.1 km/h 22.5 km/h 69 % 0 mm
14:15 25 °C 18.9 °C 1016.5 hPa SSE 8 km/h 20.9 km/h 69 % 0 mm
14:20 24.9 °C 18.8 °C 1016.5 hPa SSE 8 km/h 22.5 km/h 69 % 0 mm
14:25 24.9 °C 19 °C 1016.5 hPa SSW 8 km/h 22.5 km/h 70 % 0 mm
14:30 25.1 °C 19 °C 1016.5 hPa SSE 9.7 km/h 22.5 km/h 69 % 0 mm
14:35 25.1 °C 19.2 °C 1016.5 hPa South 4.8 km/h 17.7 km/h 70 % 0 mm
14:41 25.2 °C 19.3 °C 1016.5 hPa SSW 9.7 km/h 17.7 km/h 70 % 0 mm
14:46 25.2 °C 19.3 °C 1016.5 hPa SE 1.6 km/h 17.7 km/h 70 % 0 mm
14:51 25.2 °C 19.3 °C 1016.1 hPa South 6.4 km/h 12.9 km/h 70 % 0 mm
14:56 25.1 °C 19.2 °C 1016.1 hPa SE 11.3 km/h 14.5 km/h 70 % 0 mm
15:01 24.9 °C 19 °C 1016.1 hPa SSW 8 km/h 14.5 km/h 70 % 0 mm
15:06 24.9 °C 19 °C 1016.1 hPa SSW 3.2 km/h 17.7 km/h 70 % 0 mm
15:11 24.9 °C 19 °C 1016.1 hPa SSE 9.7 km/h 17.7 km/h 70 % 0 mm
15:16 24.9 °C 19 °C 1016.1 hPa South 6.4 km/h 17.7 km/h 70 % 0 mm
15:21 24.9 °C 18.8 °C 1016.1 hPa SW 9.7 km/h 17.7 km/h 69 % 0 mm
15:26 24.8 °C 19 °C 1016.1 hPa SSW 6.4 km/h 17.7 km/h 70 % 0 mm
15:31 24.8 °C 19 °C 1016.1 hPa SSW 8 km/h 17.7 km/h 70 % 0 mm
15:36 24.8 °C 19 °C 1016.1 hPa SSW 8 km/h 17.7 km/h 70 % 0 mm
15:41 24.7 °C 18.9 °C 1016.1 hPa SSW 12.9 km/h 17.7 km/h 70 % 0 mm
15:46 24.8 °C 19.2 °C 1016.1 hPa South 14.5 km/h 17.7 km/h 71 % 0 mm
15:51 24.8 °C 19.2 °C 1016.1 hPa South 4.8 km/h 17.7 km/h 71 % 0 mm
15:56 24.8 °C 19 °C 1016.1 hPa South 6.4 km/h 14.5 km/h 70 % 0 mm
16:01 24.8 °C 19.2 °C 1016.1 hPa SSW 3.2 km/h 14.5 km/h 71 % 0 mm
16:06 24.9 °C 19.5 °C 1016.1 hPa South 9.7 km/h 12.9 km/h 72 % 0 mm
16:11 25.1 °C 19.2 °C 1016.1 hPa SSE 6.4 km/h 12.9 km/h 70 % 0 mm
16:16 25.2 °C 19.1 °C 1016.1 hPa South 6.4 km/h 12.9 km/h 69 % 0 mm
16:21 25.3 °C 19.2 °C 1016.1 hPa SE 16.1 km/h 16.1 km/h 69 % 0 mm
16:26 25.4 °C 19.1 °C 1016.1 hPa South 8 km/h 19.3 km/h 68 % 0 mm
16:31 25.5 °C 19.4 °C 1016.1 hPa SSE 8 km/h 19.3 km/h 69 % 0 mm
16:36 25.4 °C 19.3 °C 1016.1 hPa SE 11.3 km/h 19.3 km/h 69 % 0 mm
16:42 25.2 °C 19.3 °C 1016.1 hPa SE 11.3 km/h 20.9 km/h 70 % 0 mm
16:47 25.1 °C 19.2 °C 1016.1 hPa SSE 8 km/h 20.9 km/h 70 % 0 mm
16:52 25.1 °C 19.5 °C 1016.1 hPa SSE 9.7 km/h 20.9 km/h 71 % 0 mm
16:57 25 °C 19.4 °C 1016.1 hPa ESE 16.1 km/h 19.3 km/h 71 % 0 mm
17:02 24.9 °C 19.5 °C 1016.1 hPa ESE 9.7 km/h 17.7 km/h 72 % 0 mm
17:07 24.9 °C 19.9 °C 1016.1 hPa ESE 16.1 km/h 17.7 km/h 74 % 0 mm
17:12 24.7 °C 19.8 °C 1016.1 hPa SE 4.8 km/h 19.3 km/h 74 % 0 mm
17:17 24.6 °C 19.7 °C 1016.1 hPa SE 11.3 km/h 19.3 km/h 74 % 0 mm
17:22 24.5 °C 19.8 °C 1016.1 hPa SE 11.3 km/h 19.3 km/h 75 % 0 mm
17:27 24.4 °C 19.7 °C 1016.1 hPa SE 14.5 km/h 16.1 km/h 75 % 0 mm
17:32 24.3 °C 19.6 °C 1016.1 hPa South 6.4 km/h 17.7 km/h 75 % 0 mm
17:37 24.2 °C 19.5 °C 1016.1 hPa SE 16.1 km/h 17.7 km/h 75 % 0 mm
17:42 24.1 °C 19.4 °C 1016.1 hPa South 9.7 km/h 19.3 km/h 75 % 0 mm
17:47 24.1 °C 19.4 °C 1016.1 hPa ESE 11.3 km/h 19.3 km/h 75 % 0 mm
17:52 23.9 °C 19.2 °C 1016.1 hPa SSW 8 km/h 19.3 km/h 75 % 0 mm
17:57 23.8 °C 19.1 °C 1016.1 hPa East 8 km/h 20.9 km/h 75 % 0 mm
18:02 23.7 °C 19.2 °C 1016.1 hPa ESE 17.7 km/h 20.9 km/h 76 % 0 mm
18:07 23.6 °C 19.1 °C 1016.1 hPa SE 6.4 km/h 20.9 km/h 76 % 0 mm
18:12 23.6 °C 19.1 °C 1016.1 hPa SSE 4.8 km/h 19.3 km/h 76 % 0 mm
18:17 23.4 °C 18.9 °C 1016.1 hPa SE 14.5 km/h 19.3 km/h 76 % 0 mm
18:22 23.3 °C 18.8 °C 1016.1 hPa South 9.7 km/h 17.7 km/h 76 % 0 mm
18:27 23.2 °C 18.7 °C 1016.1 hPa SSE 11.3 km/h 17.7 km/h 76 % 0 mm
18:32 23.1 °C 18.8 °C 1016.5 hPa South 8 km/h 17.7 km/h 77 % 0 mm
18:37 22.9 °C 18.7 °C 1016.1 hPa SE 9.7 km/h 19.3 km/h 77 % 0 mm
18:42 22.8 °C 18.8 °C 1016.5 hPa SSE 9.7 km/h 19.3 km/h 78 % 0 mm
18:43 22.8 °C 18.8 °C 1016.5 hPa East 12.9 km/h 19.3 km/h 78 % 0 mm
18:48 22.7 °C 18.9 °C 1016.5 hPa SE 8 km/h 19.3 km/h 79 % 0 mm
18:53 22.6 °C 18.8 °C 1016.5 hPa SSE 9.7 km/h 20.9 km/h 79 % 0 mm
18:58 22.5 °C 18.9 °C 1016.5 hPa SSW 6.4 km/h 20.9 km/h 80 % 0 mm
19:03 22.4 °C 18.8 °C 1016.5 hPa ESE 11.3 km/h 20.9 km/h 80 % 0 mm
19:08 22.3 °C 18.9 °C 1016.8 hPa South 6.4 km/h 19.3 km/h 81 % 0 mm
19:13 22.3 °C 18.9 °C 1016.8 hPa SSE 12.9 km/h 19.3 km/h 81 % 0 mm
19:18 22.2 °C 19 °C 1016.8 hPa SE 9.7 km/h 19.3 km/h 82 % 0 mm
19:23 22.1 °C 18.9 °C 1016.8 hPa SSW 16.1 km/h 16.1 km/h 82 % 0 mm
19:28 22 °C 19 °C 1016.8 hPa SSE 6.4 km/h 16.1 km/h 83 % 0 mm
19:33 21.9 °C 19.1 °C 1016.8 hPa SW 6.4 km/h 16.1 km/h 84 % 0 mm
19:38 21.8 °C 19.2 °C 1017.2 hPa South 6.4 km/h 16.1 km/h 85 % 0 mm
19:43 21.7 °C 19.1 °C 1016.8 hPa SSE 4.8 km/h 14.5 km/h 85 % 0 mm
19:48 21.6 °C 19.3 °C 1017.2 hPa SSE 8 km/h 14.5 km/h 87 % 0 mm
19:53 21.6 °C 19.3 °C 1016.8 hPa SSW 14.5 km/h 19.3 km/h 87 % 0 mm
19:58 21.4 °C 19.3 °C 1016.8 hPa SE 12.9 km/h 19.3 km/h 88 % 0 mm
20:03 21.4 °C 19.3 °C 1016.8 hPa South 8 km/h 19.3 km/h 88 % 0 mm
20:08 21.3 °C 19.4 °C 1016.8 hPa South 8 km/h 19.3 km/h 89 % 0 mm
20:13 21.2 °C 19.3 °C 1016.8 hPa South 9.7 km/h 19.3 km/h 89 % 0 mm
20:18 21.2 °C 19.3 °C 1016.8 hPa SW 11.3 km/h 16.1 km/h 89 % 0 mm
20:23 21.1 °C 19.4 °C 1017.2 hPa SSE 4.8 km/h 17.7 km/h 90 % 0 mm
20:28 21 °C 19.3 °C 1017.2 hPa SE 11.3 km/h 17.7 km/h 90 % 0 mm
20:33 20.9 °C 19.4 °C 1016.8 hPa SSE 11.3 km/h 22.5 km/h 91 % 0 mm
20:38 20.9 °C 19.4 °C 1016.8 hPa SSE 4.8 km/h 22.5 km/h 91 % 0 mm
20:43 20.8 °C 19.3 °C 1016.8 hPa SSW 12.9 km/h 22.5 km/h 91 % 0 mm
20:48 20.8 °C 19.5 °C 1016.8 hPa ESE 8 km/h 17.7 km/h 92 % 0 mm
20:53 20.8 °C 19.5 °C 1016.8 hPa SSE 8 km/h 17.7 km/h 92 % 0 mm
20:58 20.8 °C 19.5 °C 1016.8 hPa SSE 6.4 km/h 17.7 km/h 92 % 0 mm
21:03 20.7 °C 19.5 °C 1017.2 hPa SSE 6.4 km/h 17.7 km/h 93 % 0 mm
21:08 20.7 °C 19.5 °C 1016.8 hPa SE 11.3 km/h 16.1 km/h 93 % 0 mm
21:13 20.7 °C 19.5 °C 1016.8 hPa SSE 6.4 km/h 16.1 km/h 93 % 0 mm
21:18 20.6 °C 19.4 °C 1016.8 hPa South 6.4 km/h 16.1 km/h 93 % 0 mm
21:23 20.6 °C 19.6 °C 1016.8 hPa SE 12.9 km/h 17.7 km/h 94 % 0 mm
21:29 20.6 °C 19.6 °C 1016.8 hPa SSE 12.9 km/h 19.3 km/h 94 % 0 mm
21:34 20.6 °C 19.6 °C 1016.8 hPa SSW 6.4 km/h 22.5 km/h 94 % 0 mm
21:39 20.6 °C 19.6 °C 1016.8 hPa SE 9.7 km/h 22.5 km/h 94 % 0 mm
21:44 20.6 °C 19.6 °C 1016.8 hPa SSE 4.8 km/h 22.5 km/h 94 % 0 mm
21:49 20.5 °C 19.5 °C 1016.8 hPa ESE 9.7 km/h 17.7 km/h 94 % 0 mm
21:54 20.5 °C 19.5 °C 1016.8 hPa South 6.4 km/h 16.1 km/h 94 % 0 mm
21:59 20.4 °C 19.4 °C 1016.8 hPa SSE 12.9 km/h 17.7 km/h 94 % 0 mm
22:04 20.4 °C 19.4 °C 1016.8 hPa South 9.7 km/h 17.7 km/h 94 % 0 mm
22:09 20.4 °C 19.4 °C 1016.8 hPa South 4.8 km/h 17.7 km/h 94 % 0 mm
22:14 20.4 °C 19.4 °C 1016.5 hPa SSE 6.4 km/h 16.1 km/h 94 % 0 mm
22:19 20.4 °C 19.4 °C 1016.5 hPa SSE 6.4 km/h 17.7 km/h 94 % 0 mm
22:24 20.4 °C 19.4 °C 1016.5 hPa South 3.2 km/h 17.7 km/h 94 % 0 mm
22:29 20.4 °C 19.4 °C 1016.8 hPa ESE 6.4 km/h 17.7 km/h 94 % 0 mm
22:34 20.4 °C 19.4 °C 1016.8 hPa SSE 9.7 km/h 16.1 km/h 94 % 0 mm
22:39 20.4 °C 19.4 °C 1016.8 hPa South 11.3 km/h 16.1 km/h 94 % 0 mm
22:44 20.4 °C 19.4 °C 1016.8 hPa SW 9.7 km/h 17.7 km/h 94 % 0 mm
22:49 20.4 °C 19.2 °C 1016.5 hPa SSW 11.3 km/h 17.7 km/h 93 % 0 mm
22:54 20.4 °C 19.2 °C 1016.5 hPa ESE 8 km/h 17.7 km/h 93 % 0 mm
22:59 20.4 °C 19.2 °C 1016.5 hPa South 12.9 km/h 24.1 km/h 93 % 0 mm
23:04 20.4 °C 19.2 °C 1016.5 hPa SE 12.9 km/h 24.1 km/h 93 % 0 mm
23:09 20.4 °C 19.2 °C 1016.5 hPa SSE 11.3 km/h 24.1 km/h 93 % 0 mm
23:14 20.4 °C 19.2 °C 1016.5 hPa ESE 6.4 km/h 19.3 km/h 93 % 0 mm
23:19 20.4 °C 19.2 °C 1016.5 hPa SSW 8 km/h 17.7 km/h 93 % 0 mm
23:24 20.4 °C 19.2 °C 1016.5 hPa SSE 4.8 km/h 17.7 km/h 93 % 0 mm
23:29 20.4 °C 19.2 °C 1016.5 hPa ESE 3.2 km/h 16.1 km/h 93 % 0 mm
23:34 20.4 °C 19.2 °C 1016.1 hPa South 9.7 km/h 16.1 km/h 93 % 0 mm
23:39 20.4 °C 19.2 °C 1016.5 hPa SE 8 km/h 16.1 km/h 93 % 0 mm
23:44 20.3 °C 19.1 °C 1016.1 hPa SE 3.2 km/h 16.1 km/h 93 % 0 mm
23:50 20.3 °C 19.1 °C 1016.1 hPa SE 8 km/h 16.1 km/h 93 % 0 mm
23:55 20.3 °C 19.1 °C 1016.1 hPa SSE 8 km/h 12.9 km/h 93 % 0 mm
Spring, Texas: Villages of Bridgestone
Compliments of Weather Underground - 2.75 mb

Script developed by  Jim McMurry - jmcmurry@mwt.net Adapted for the template by  Wim van der Kuil - Leuven-Template.eu

You find our weather info also at:

UK Metoffice

WeatherCloud

Weather Underground

Mid-South Weather Network

AWEKAS

Citizen Weather Observer Program (CWOP)

HAMweather, WeatherForYou, PWS Weather

Equipment we use:

Weather-station
Davis Vantage Vue

Weather-program
Meteohub

Weather-server
Debian 7.9 x86 (Guest)

Provider
DreamHost

Davis Vantage Vue

Meteohub

Debian 7.9 x86 (Guest)

DreamHost